Weather History for Miami, FL

Change the Weather History Date:

Thursday, February 21, 2013

  Actual Average Record
Temperature  
Mean Temperature 75 °F 71 °F  
Max Temperature 82 °F 79 °F 86 °F (1989)
Min Temperature 68 °F 63 °F 41 °F (1977)
Degree Days  
Heating Degree Days 0 1  
Month to date heating degree days 16 21  
Since 1 July heating degree days 36 111  
Cooling Degree Days 10 7  
Month to date cooling degree days 128 122  
Year to date cooling degree days 397 273  
Growing Degree Days 26 (Base 50)    
Moisture  
Dew Point 65 °F    
Average Humidity 71    
Maximum Humidity 84    
Minimum Humidity 58    
Precipitation  
Precipitation 0.00 in 0.07 in 2.51 in (1922)
Month to date precipitation 1.74 1.67  
Year to date precipitation 2.28 3.29  
Snow  
Snow 0.00 in - - ()
Month to date snowfall 0.0  
Since 1 July snowfall 0.0  
Snow Depth 0.00 in    
Sea Level Pressure  
Sea Level Pressure 30.06 in    
Wind  
Wind Speed 9 mph (ESE)    
Max Wind Speed 16 mph    
Max Gust Speed 21 mph    
Visibility 10 miles    
Events      
T = Trace of Precipitation, MM = Missing Value Source: NWS Daily Summary

Daily Weather History Graph

Daily Weather History Graph

Search for Another Location

Airport:

Trip Planner

Search our weather history database for the weather conditions in past years. The results will help you decide how hot, cold, wet, or windy it might be!

Date:

Astronomy

Feb. 21, 2013 Rise Set
Actual Time 6:51 AM EST 6:18 PM EST
Civil Twilight 6:28 AM EST 6:41 PM EST
Nautical Twilight 6:01 AM EST 7:08 PM EST
Astronomical Twilight 5:34 AM EST 7:35 PM EST
Moon 2:46 PM EST (2/21) 3:39 AM EST (2/21)
Length of Visible Light 12h 13m
Length of Day
11h 27m
Waxing Gibbous, 83% of the Moon is Illuminated
Feb 21
Waxing Gibbous
Feb 25
Full
Mar 4
Last Quarter
Mar 11
New
Mar 19
First Quarter

Hourly Weather History & Observations

Time (EST) Temp. Heat Index Dew Point Humidity Pressure Visibility Wind Dir Wind Speed Gust Speed Precip Events Conditions
12:53 AM 73.0 °F - 66.9 °F 81% 30.07 in 10.0 mi East 8.1 mph - N/A   Overcast
1:53 AM 73.0 °F - 66.0 °F 79% 30.05 in 10.0 mi East 10.4 mph - N/A   Overcast
2:53 AM 72.0 °F - 64.9 °F 78% 30.04 in 10.0 mi East 6.9 mph - N/A   Overcast
3:53 AM 71.1 °F - 64.9 °F 81% 30.01 in 10.0 mi SE 5.8 mph - N/A   Scattered Clouds
4:53 AM 71.1 °F - 64.0 °F 78% 30.02 in 10.0 mi SE 5.8 mph - N/A   Partly Cloudy
5:53 AM 70.0 °F - 64.0 °F 81% 30.04 in 10.0 mi East 4.6 mph - N/A   Scattered Clouds
6:53 AM 70.0 °F - 64.0 °F 81% 30.06 in 10.0 mi East 4.6 mph - N/A   Mostly Cloudy
7:53 AM 73.9 °F - 66.0 °F 76% 30.08 in 10.0 mi East 3.5 mph - N/A   Mostly Cloudy
8:53 AM 75.9 °F - 64.9 °F 69% 30.10 in 10.0 mi ESE 9.2 mph - N/A   Scattered Clouds
9:49 AM 78.8 °F - 64.4 °F 61% 30.10 in 10.0 mi ESE 10.4 mph - N/A   Mostly Cloudy
9:53 AM 79.0 °F - 64.9 °F 62% 30.11 in 10.0 mi ESE 9.2 mph - N/A   Mostly Cloudy
10:53 AM 79.0 °F - 64.0 °F 60% 30.09 in 10.0 mi East 13.8 mph - N/A   Mostly Cloudy
11:06 AM 80.6 °F 82.3 °F 64.4 °F 58% 30.09 in 10.0 mi East 15.0 mph 19.6 mph N/A   Mostly Cloudy
11:53 AM 80.1 °F 81.9 °F 64.9 °F 60% 30.10 in 10.0 mi ESE 11.5 mph - N/A   Mostly Cloudy
12:47 PM 80.6 °F 82.3 °F 64.4 °F 58% 30.08 in 10.0 mi SE 12.7 mph 18.4 mph N/A   Mostly Cloudy
12:53 PM 81.0 °F 82.5 °F 64.0 °F 56% 30.08 in 10.0 mi SE 13.8 mph 18.4 mph N/A   Mostly Cloudy
1:53 PM 81.0 °F 82.5 °F 64.0 °F 56% 30.06 in 10.0 mi East 13.8 mph - N/A   Mostly Cloudy
2:53 PM 80.1 °F 81.7 °F 64.0 °F 58% 30.05 in 10.0 mi ESE 11.5 mph - N/A   Mostly Cloudy
3:53 PM 78.1 °F - 64.0 °F 62% 30.04 in 10.0 mi ESE 10.4 mph - N/A   Mostly Cloudy
4:53 PM 78.1 °F - 64.0 °F 62% 30.04 in 10.0 mi East 11.5 mph - N/A   Scattered Clouds
5:53 PM 75.9 °F - 63.0 °F 64% 30.05 in 10.0 mi ESE 11.5 mph - N/A   Scattered Clouds
6:53 PM 73.9 °F - 64.9 °F 73% 30.05 in 10.0 mi ESE 9.2 mph - N/A   Partly Cloudy
7:53 PM 73.9 °F - 64.9 °F 73% 30.06 in 10.0 mi ESE 9.2 mph - N/A   Partly Cloudy
8:53 PM 73.0 °F - 64.9 °F 76% 30.06 in 10.0 mi ESE 9.2 mph - N/A   Clear
9:53 PM 73.0 °F - 66.0 °F 79% 30.07 in 10.0 mi East 8.1 mph - N/A   Clear
10:53 PM 73.0 °F - 66.9 °F 81% 30.07 in 10.0 mi ESE 9.2 mph - N/A   Partly Cloudy
11:53 PM 73.0 °F - 66.9 °F 81% 30.06 in 10.0 mi East 9.2 mph - N/A   Scattered Clouds